WV8BRW Weather Reports


Display with metric or nautical units.
time (UTC)temp
F
wind
direction
speed
MPH
gust
MPH
rain 1hr
in
rain 24hr
in
rain mn
in
humidity
%
barometer
mb
20260508141332 61 358 1.0 1.0 0.00 0.00 0.00 58 1015.0
20260508140829 60 344 1.0 1.0 0.00 0.00 0.00 59 1015.0
20260508140326 60 332 0.0 0.0 0.00 0.00 0.00 62 1015.0
20260508135821 58 4 2.0 2.0 0.00 0.00 0.00 70 1015.1
20260508135318 57 262 1.0 1.0 0.00 0.00 0.00 68 1014.9
20260508134814 57 321 0.0 1.0 0.00 0.00 0.00 67 1014.9
20260508134311 55 343 0.0 0.0 0.00 0.00 0.00 75 1015.0
20260508133808 55 339 0.0 1.0 0.00 0.00 0.00 75 1015.4
20260508133306 53 335 0.0 0.0 0.00 0.00 0.00 78 1015.4
20260508132803 53 333 0.0 0.0 0.00 0.00 0.00 78 1015.1
20260508132301 53 324 0.0 0.0 0.00 0.00 0.00 76 1015.1
20260508131756 53 244 2.0 2.0 0.00 0.00 0.00 76 1015.3
20260508131252 52 343 0.0 0.0 0.00 0.00 0.00 76 1015.4
20260508130749 50 345 0.0 0.0 0.00 0.00 0.00 79 1015.6
20260508130246 50 337 0.0 1.0 0.00 0.00 0.00 81 1015.4
20260508125742 49 346 0.0 0.0 0.00 0.00 0.00 82 1015.4
20260508125238 48 348 1.0 1.0 0.00 0.00 0.00 82 1015.5
20260508124737 47 334 0.0 0.0 0.00 0.00 0.00 88 1015.4
20260508124233 46 334 0.0 0.0 0.00 0.00 0.00 96 1015.3
20260508123732 44 334 0.0 0.0 0.00 0.00 0.00 99 1015.3
20260508123229 43 342 0.0 1.0 0.00 0.00 0.00 99 1015.4
20260508122725 43 325 0.0 0.0 0.00 0.00 0.00 99 1015.4
20260508122222 43 325 0.0 0.0 0.00 0.00 0.00 99 1015.5
20260508121720 41 325 0.0 0.0 0.00 0.00 0.00 99 1015.3
20260508121219 40 324 0.0 0.0 0.00 0.00 0.00 99 1015.3
20260508120715 39 325 0.0 0.0 0.00 0.00 0.00 99 1015.5
20260508120213 38 322 0.0 0.0 0.00 0.00 0.00 99 1015.0
20260508115711 37 322 0.0 0.0 0.00 0.00 0.00 99 1015.3
20260508115208 37 322 0.0 0.0 0.00 0.00 0.00 99 1015.1
20260508114704 36 322 0.0 0.0 0.00 0.00 0.00 99 1015.3
20260508114201 36 322 0.0 0.0 0.00 0.00 0.00 99 1015.4
20260508113658 35 322 0.0 0.0 0.00 0.00 0.00 99 1015.4
20260508113156 35 322 0.0 0.0 0.00 0.00 0.00 99 1015.1
20260508112652 34 322 0.0 0.0 0.00 0.00 0.00 99 1015.1
20260508112149 34 322 0.0 0.0 0.00 0.00 0.00 99 1015.4
20260508111645 34 322 0.0 0.0 0.00 0.00 0.00 99 1015.0
20260508111143 34 321 0.0 0.0 0.00 0.00 0.00 99 1015.1
20260508110640 34 321 0.0 0.0 0.00 0.00 0.00 99 1015.1
20260508110137 34 320 0.0 0.0 0.00 0.00 0.00 99 1015.4
20260508105632 34 323 0.0 0.0 0.00 0.00 0.00 99 1014.9
20260508105129 33 321 0.0 0.0 0.00 0.00 0.00 99 1014.6
20260508104627 34 320 0.0 0.0 0.00 0.00 0.00 99 1014.9
20260508104123 34 320 0.0 0.0 0.00 0.00 0.00 99 1014.8
20260508103620 34 320 0.0 0.0 0.00 0.00 0.00 99 1014.7
20260508103117 34 324 0.0 1.0 0.00 0.00 0.00 99 1014.8
20260508102615 34 329 0.0 1.0 0.00 0.00 0.00 99 1014.5
20260508102113 34 336 1.0 2.0 0.00 0.00 0.00 99 1014.8
20260508101610 34 336 1.0 1.0 0.00 0.00 0.00 99 1014.7
20260508101107 34 332 1.0 1.0 0.00 0.00 0.00 99 1014.5
20260508100604 34 331 1.0 1.0 0.00 0.00 0.00 99 1014.6
20260508095558 34 330 0.0 0.0 0.00 0.00 0.00 99 1014.4
20260508095055 34 330 0.0 0.0 0.00 0.00 0.00 99 1014.4
20260508094552 34 330 0.0 0.0 0.00 0.00 0.00 99 1014.4
20260508094049 35 331 0.0 0.0 0.00 0.00 0.00 99 1014.6
20260508093546 35 331 0.0 0.0 0.00 0.00 0.00 99 1014.4
20260508093044 35 330 0.0 0.0 0.00 0.00 0.00 99 1014.4
20260508092541 34 330 0.0 0.0 0.00 0.00 0.00 99 1014.5
20260508092040 35 330 0.0 0.0 0.00 0.00 0.00 99 1014.2
20260508091537 35 330 0.0 0.0 0.00 0.00 0.00 99 1014.4
20260508091033 35 331 0.0 0.0 0.00 0.00 0.00 99 1014.4
20260508090532 35 330 0.0 0.0 0.00 0.00 0.00 99 1014.2
20260508090028 35 330 0.0 0.0 0.00 0.00 0.00 99 1014.4
20260508085524 35 330 0.0 0.0 0.00 0.00 0.00 99 1014.4
20260508085021 35 331 0.0 0.0 0.00 0.00 0.00 99 1014.4
20260508084518 35 331 0.0 0.0 0.00 0.00 0.00 99 1014.2
20260508084016 35 330 0.0 0.0 0.00 0.00 0.00 99 1014.5
20260508083513 35 331 0.0 0.0 0.00 0.00 0.00 99 1014.4
20260508083009 35 331 0.0 0.0 0.00 0.00 0.00 99 1014.1
20260508082505 35 331 0.0 1.0 0.00 0.00 0.00 99 1014.2
20260508082003 35 331 0.0 1.0 0.00 0.00 0.00 99 1014.4
20260508081500 35 331 0.0 0.0 0.00 0.00 0.00 99 1014.3
20260508080955 35 330 0.0 0.0 0.00 0.00 0.00 99 1014.4
20260508080454 36 331 0.0 0.0 0.00 0.00 0.00 99 1014.3
20260508075951 36 331 0.0 0.0 0.00 0.00 0.00 99 1014.3
20260508075448 36 331 0.0 1.0 0.00 0.00 0.00 99 1014.2
20260508074945 36 331 1.0 1.0 0.00 0.00 0.00 99 1014.2
20260508074443 36 329 0.0 0.0 0.00 0.00 0.00 99 1014.3
20260508073940 36 329 0.0 0.0 0.00 0.00 0.00 99 1014.4
20260508073437 36 328 0.0 0.0 0.00 0.00 0.00 99 1014.2
20260508072934 36 328 0.0 0.0 0.00 0.00 0.00 99 1014.2
20260508072430 36 329 0.0 0.0 0.00 0.00 0.00 99 1014.2
20260508071928 36 327 0.0 0.0 0.00 0.00 0.00 99 1014.1
20260508071425 36 326 0.0 0.0 0.00 0.00 0.00 99 1014.5
20260508070923 36 326 0.0 0.0 0.00 0.00 0.00 99 1014.2
20260508070421 37 330 0.0 0.0 0.00 0.00 0.00 99 1014.1
20260508065918 37 331 0.0 1.0 0.00 0.00 0.00 99 1014.1
20260508065416 37 331 0.0 1.0 0.00 0.00 0.00 99 1014.1
20260508064914 37 330 1.0 1.0 0.00 0.00 0.00 99 1013.8
20260508064411 37 328 1.0 1.0 0.00 0.00 0.00 99 1014.2
20260508063909 37 335 1.0 1.0 0.00 0.00 0.00 99 1014.3
20260508063407 37 335 1.0 1.0 0.00 0.00 0.00 99 1014.2
20260508062903 37 338 1.0 2.0 0.00 0.00 0.00 99 1014.2
20260508062401 37 337 1.0 2.0 0.00 0.00 0.00 99 1014.1
20260508061858 37 332 1.0 2.0 0.00 0.00 0.00 99 1014.3
20260508061355 37 330 0.0 0.0 0.00 0.00 0.00 99 1014.3
20260508060851 37 330 0.0 0.0 0.00 0.00 0.00 99 1014.4
20260508060350 38 331 0.0 0.0 0.00 0.00 0.00 99 1014.2
20260508055844 38 331 0.0 0.0 0.00 0.00 0.00 99 1014.3
20260508055342 38 332 1.0 1.0 0.00 0.00 0.00 99 1014.3
20260508054838 38 331 1.0 1.0 0.00 0.00 0.00 99 1014.5
20260508054336 38 330 0.0 0.0 0.00 0.00 0.00 99 1014.1
20260508053832 38 329 0.0 0.0 0.00 0.00 0.00 99 1014.4
20260508053330 38 329 0.0 0.0 0.00 0.00 0.00 99 1014.2
20260508052827 38 330 0.0 0.0 0.00 0.00 0.00 99 1014.2
20260508052324 39 338 1.0 1.0 0.00 0.00 0.00 99 1014.2
20260508051821 39 346 1.0 1.0 0.00 0.00 0.00 99 1014.1
20260508051316 39 339 1.0 2.0 0.00 0.00 0.00 99 1014.0
20260508050813 39 340 2.0 2.0 0.00 0.00 0.00 99 1014.2
20260508050310 39 336 1.0 1.0 0.00 0.00 0.00 99 1014.2
20260508045805 39 333 0.0 1.0 0.00 0.00 0.00 99 1014.2
20260508045306 39 333 0.0 0.0 0.00 0.00 0.00 99 1014.2
20260508044801 39 334 0.0 0.0 0.00 0.00 0.00 99 1014.3
20260508044257 39 335 1.0 1.0 0.00 0.00 0.00 99 1014.2
20260508043753 40 339 1.0 2.0 0.00 0.00 0.00 98 1014.2
20260508043251 40 332 1.0 1.0 0.00 0.00 0.00 98 1014.2
20260508042747 40 333 1.0 1.0 0.00 0.00 0.00 98 1014.0
20260508042245 40 334 1.0 1.0 0.00 0.00 0.00 97 1014.1
20260508041741 40 330 0.0 0.0 0.00 0.00 0.00 97 1014.2
20260508041238 40 330 0.0 0.0 0.00 0.00 0.00 96 1014.1
20260508040735 41 330 0.0 0.0 0.00 0.00 0.00 96 1014.0
20260508040232 41 336 2.0 2.0 0.00 0.00 0.00 96 1014.3
20260508035729 41 333 1.0 1.0 0.00 0.00 0.00 96 1014.2
20260508035227 41 341 1.0 2.0 0.00 0.00 0.00 95 1014.2
20260508034723 41 334 1.0 1.0 0.00 0.00 0.00 95 1014.1
20260508034221 41 332 0.0 0.0 0.00 0.00 0.00 95 1014.1
20260508033717 41 336 1.0 1.0 0.00 0.00 0.00 94 1014.0
20260508033216 42 335 1.0 1.0 0.00 0.00 0.00 94 1014.0
20260508032713 42 334 1.0 1.0 0.00 0.00 0.00 93 1014.1
20260508032209 42 331 0.0 0.0 0.00 0.00 0.00 93 1014.3
20260508031707 42 322 0.0 0.0 0.00 0.00 0.00 92 1014.2
20260508031203 42 322 0.0 1.0 0.00 0.00 0.00 91 1014.2
20260508030659 43 325 1.0 1.0 0.00 0.00 0.00 91 1014.0
20260508030157 43 328 1.0 2.0 0.00 0.00 0.00 90 1013.9
20260508025653 43 343 2.0 2.0 0.00 0.00 0.00 89 1014.0
20260508025150 44 336 2.0 2.0 0.00 0.00 0.00 88 1013.9
20260508024646 44 338 1.0 2.0 0.00 0.00 0.00 88 1013.9
20260508024144 44 339 1.0 2.0 0.00 0.00 0.00 87 1013.6
20260508023639 44 337 2.0 2.0 0.00 0.00 0.00 87 1013.8
20260508023137 44 342 2.0 2.0 0.00 0.00 0.00 87 1013.7
20260508022633 44 338 2.0 2.0 0.00 0.00 0.00 86 1013.7
20260508022130 45 342 2.0 2.0 0.00 0.00 0.00 85 1013.5
20260508021626 45 341 2.0 2.0 0.00 0.00 0.00 84 1013.5
20260508021122 46 333 2.0 2.0 0.00 0.00 0.00 81 1013.5
20260508020620 46 340 2.0 2.0 0.00 0.00 0.00 80 1013.5
20260508020117 46 335 1.0 2.0 0.00 0.00 0.00 79 1013.3
20260508015615 46 340 2.0 2.0 0.00 0.00 0.00 79 1013.1
20260508015111 47 335 1.0 1.0 0.00 0.00 0.00 79 1013.2
20260508014607 47 353 2.0 2.0 0.00 0.00 0.00 78 1013.1
20260508014104 47 340 2.0 2.0 0.00 0.00 0.00 78 1012.9
20260508013600 48 335 2.0 2.0 0.00 0.00 0.00 76 1013.0
20260508013057 48 342 3.0 3.0 0.00 0.00 0.00 74 1012.8
20260508012555 49 336 1.0 2.0 0.00 0.00 0.00 72 1012.6
20260508012052 49 319 1.0 1.0 0.00 0.00 0.00 71 1012.8
20260508011550 49 318 0.0 1.0 0.00 0.00 0.00 70 1012.4
20260508011047 50 318 0.0 1.0 0.00 0.00 0.00 69 1012.6
20260508010544 50 316 0.0 1.0 0.00 0.00 0.00 68 1012.5
20260508010041 50 316 0.0 0.0 0.00 0.00 0.00 66 1012.3
20260508005537 50 315 0.0 0.0 0.00 0.00 0.00 67 1012.2
20260508005035 50 315 0.0 0.0 0.00 0.00 0.00 70 1012.3
20260508004530 50 315 0.0 0.0 0.00 0.00 0.00 68 1012.1
20260508004027 51 315 0.0 0.0 0.00 0.00 0.00 65 1012.3
20260508003524 51 315 0.0 0.0 0.00 0.00 0.00 65 1012.3
20260508003022 52 315 0.0 0.0 0.00 0.00 0.00 63 1012.2
20260508002517 52 318 0.0 0.0 0.00 0.00 0.00 62 1012.1
20260508002015 53 318 0.0 0.0 0.00 0.00 0.00 61 1012.1
20260508001511 53 320 0.0 0.0 0.00 0.00 0.00 63 1011.9
20260508001007 54 313 0.0 0.0 0.00 0.00 0.00 61 1011.8
20260508000503 55 301 1.0 1.0 0.00 0.00 0.00 62 1011.8
20260508000000 56 336 1.0 1.0 0.00 0.00 0.00 60 1011.7
20260507235456 57 334 0.0 0.0 0.00 0.00 0.00 56 1011.6
20260507234954 58 315 0.0 0.0 0.00 0.00 0.00 50 1011.9
20260507234451 59 223 1.0 2.0 0.00 0.00 0.00 49 1011.6
20260507233949 59 95 4.0 6.0 0.00 0.00 0.00 39 1011.3
20260507233444 60 298 1.0 2.0 0.00 0.00 0.00 46 1011.4
20260507232943 60 75 2.0 2.0 0.00 0.00 0.00 38 1011.2
20260507232439 60 243 3.0 3.0 0.00 0.00 0.00 42 1011.4
20260507231936 61 300 1.0 1.0 0.00 0.00 0.00 38 1011.4
20260507231432 61 12 3.0 3.0 0.00 0.00 0.00 36 1011.2
20260507230929 61 121 2.0 2.0 0.00 0.00 0.00 37 1011.2
20260507230427 62 28 2.0 2.0 0.00 0.00 0.00 39 1011.0
20260507225926 62 256 2.0 2.0 0.00 0.00 0.00 36 1011.3
20260507225423 62 337 0.0 0.0 0.00 0.00 0.00 39 1011.3
20260507224919 62 10 1.0 2.0 0.00 0.00 0.00 34 1011.1
20260507224415 62 200 3.0 3.0 0.00 0.00 0.00 35 1011.1
20260507223912 62 211 4.0 5.0 0.00 0.00 0.00 37 1011.0
20260507223408 62 238 5.0 5.0 0.00 0.00 0.00 35 1011.1
20260507222905 63 78 5.0 6.0 0.00 0.00 0.00 35 1011.0
20260507222402 64 255 4.0 5.0 0.00 0.00 0.00 37 1011.1
20260507221859 63 298 2.0 3.0 0.00 0.00 0.00 37 1011.0
20260507221355 64 16 3.0 5.0 0.00 0.00 0.00 38 1011.1
20260507220851 64 128 2.0 2.0 0.00 0.00 0.00 36 1011.0
20260507220350 64 140 5.0 6.0 0.00 0.00 0.00 36 1011.1
20260507215846 64 264 5.0 7.0 0.00 0.00 0.00 37 1010.8
20260507215342 64 53 4.0 6.0 0.00 0.00 0.00 37 1011.0
20260507214840 64 71 1.0 2.0 0.00 0.00 0.00 40 1011.0
20260507214337 64 282 3.0 3.0 0.00 0.00 0.00 39 1010.8
20260507213832 63 253 3.0 5.0 0.00 0.00 0.00 40 1010.6
20260507213329 65 139 5.0 6.0 0.00 0.00 0.00 38 1010.6
20260507212826 65 135 2.0 5.0 0.00 0.00 0.00 41 1010.6
20260507212322 65 80 3.0 3.0 0.00 0.00 0.00 42 1010.5
20260507211819 63 296 1.0 1.0 0.00 0.00 0.00 42 1010.8
20260507211315 62 128 6.0 7.0 0.00 0.00 0.00 44 1010.6
20260507210813 63 72 3.0 3.0 0.00 0.00 0.00 42 1010.7
20260507210309 63 299 1.0 2.0 0.00 0.00 0.00 43 1010.5
20260507205805 62 226 3.0 3.0 0.00 0.00 0.00 44 1010.5
20260507205306 63 354 3.0 6.0 0.00 0.00 0.00 42 1010.6
20260507204758 64 237 3.0 3.0 0.00 0.00 0.00 43 1010.3
20260507204257 65 324 0.0 0.0 0.00 0.00 0.00 41 1010.4
20260507203754 64 268 1.0 2.0 0.00 0.00 0.00 50 1010.3
20260507203252 64 92 7.0 8.0 0.00 0.00 0.00 42 1010.6
20260507202748 63 225 3.0 3.0 0.00 0.00 0.00 43 1010.3
20260507202244 62 79 3.0 3.0 0.00 0.00 0.00 43 1010.5
20260507201738 62 230 3.0 3.0 0.00 0.00 0.00 46 1010.4
20260507201236 64 161 2.0 5.0 0.00 0.00 0.00 43 1010.5
20260507200732 65 101 2.0 3.0 0.00 0.00 0.00 41 1010.6
20260507200228 65 6 5.0 7.0 0.00 0.00 0.00 41 1010.5
20260507195725 63 194 4.0 6.0 0.00 0.00 0.00 45 1010.5
20260507195222 62 123 3.0 5.0 0.00 0.00 0.00 45 1010.8
20260507194719 65 91 3.0 6.0 0.00 0.00 0.00 42 1010.7
20260507194215 63 102 3.0 3.0 0.00 0.00 0.00 44 1010.7
20260507193712 62 127 4.0 7.0 0.00 0.00 0.00 45 1010.8
20260507193208 63 114 6.0 6.0 0.00 0.00 0.00 46 1010.8
20260507192704 63 123 4.0 5.0 0.00 0.00 0.00 44 1010.7
20260507192201 64 206 3.0 3.0 0.00 0.00 0.00 47 1010.7
20260507191657 65 223 4.0 6.0 0.00 0.00 0.00 50 1010.9
20260507191154 64 219 4.0 5.0 0.00 0.00 0.00 47 1010.9
20260507190651 65 240 3.0 5.0 0.00 0.00 0.00 46 1010.9
20260507190150 64 301 0.0 1.0 0.00 0.00 0.00 46 1010.8
20260507185648 64 35 3.0 3.0 0.00 0.00 0.00 44 1011.1
20260507185144 63 138 3.0 6.0 0.00 0.00 0.00 44 1011.3
20260507184642 63 302 1.0 2.0 0.00 0.00 0.00 45 1011.3
20260507184140 62 276 2.0 2.0 0.00 0.00 0.00 50 1011.1
20260507183636 64 220 3.0 3.0 0.00 0.00 0.00 51 1011.3
20260507183133 63 283 4.0 6.0 0.00 0.00 0.00 46 1011.3
20260507182630 61 348 1.0 2.0 0.00 0.00 0.00 51 1011.5
20260507182126 61 90 7.0 9.0 0.00 0.00 0.00 49 1011.4
20260507181622 62 352 1.0 1.0 0.00 0.00 0.00 54 1011.3
20260507181119 63 153 4.0 7.0 0.00 0.00 0.00 53 1011.3
20260507180615 64 76 5.0 7.0 0.00 0.00 0.00 47 1011.2
20260507180113 62 214 5.0 6.0 0.00 0.00 0.00 51 1011.3
20260507175608 64 197 4.0 5.0 0.00 0.00 0.00 50 1011.3
20260507175106 64 328 1.0 1.0 0.00 0.00 0.00 55 1011.5
20260507174603 63 160 4.0 5.0 0.00 0.00 0.00 54 1011.5
20260507174101 63 104 2.0 3.0 0.00 0.00 0.00 53 1012.0
20260507173557 63 254 3.0 5.0 0.00 0.00 0.00 51 1011.6
20260507173055 63 115 2.0 3.0 0.00 0.00 0.00 53 1011.8
20260507172550 62 29 2.0 2.0 0.00 0.00 0.00 52 1011.6
20260507172048 61 126 4.0 5.0 0.00 0.00 0.00 55 1011.6
20260507171543 60 42 2.0 2.0 0.00 0.00 0.00 56 1011.9
20260507171040 60 110 3.0 3.0 0.00 0.00 0.00 57 1011.9
20260507170537 61 164 6.0 7.0 0.00 0.00 0.00 54 1012.0
20260507170034 59 145 5.0 6.0 0.00 0.00 0.00 54 1012.0
20260507165530 61 288 1.0 2.0 0.00 0.00 0.00 55 1012.0
20260507165026 61 349 1.0 1.0 0.00 0.00 0.00 52 1012.0
20260507164522 59 22 4.0 5.0 0.00 0.00 0.00 52 1012.1
20260507164020 60 243 4.0 6.0 0.00 0.00 0.00 55 1012.0
20260507163516 60 18 2.0 2.0 0.00 0.00 0.00 53 1012.2
20260507163015 60 308 1.0 1.0 0.00 0.00 0.00 58 1012.2
20260507162509 60 357 1.0 1.0 0.00 0.00 0.00 58 1012.1
20260507162006 59 288 1.0 2.0 0.00 0.00 0.00 55 1012.3
20260507161503 60 322 1.0 1.0 0.00 0.00 0.00 54 1012.1
20260507161000 60 206 1.0 2.0 0.00 0.00 0.00 54 1012.4
20260507160455 58 337 0.0 1.0 0.00 0.00 0.00 62 1012.3
20260507155951 59 47 2.0 2.0 0.00 0.00 0.00 56 1012.6
20260507155448 59 351 1.0 1.0 0.00 0.00 0.00 58 1012.3
20260507154945 58 100 3.0 3.0 0.00 0.00 0.00 58 1012.6
20260507154441 59 131 5.0 6.0 0.00 0.00 0.00 57 1012.5
20260507153939 60 62 2.0 2.0 0.00 0.00 0.00 56 1012.5
20260507153435 59 265 2.0 3.0 0.00 0.00 0.00 55 1012.5
20260507152931 57 190 5.0 6.0 0.00 0.00 0.00 59 1012.4
20260507152428 58 262 1.0 3.0 0.00 0.00 0.00 57 1012.5
20260507151924 60 12 6.0 7.0 0.00 0.00 0.00 56 1012.3
20260507151421 61 263 5.0 6.0 0.00 0.00 0.00 54 1012.3
20260507150917 60 10 2.0 3.0 0.00 0.00 0.00 55 1012.3
20260507150414 60 308 4.0 6.0 0.00 0.00 0.00 53 1012.3
20260507145911 60 271 3.0 3.0 0.00 0.00 0.00 56 1012.6
20260507145406 59 314 1.0 2.0 0.00 0.00 0.00 56 1012.6
20260507144904 58 315 2.0 2.0 0.00 0.00 0.00 56 1012.6
20260507144401 59 303 2.0 2.0 0.00 0.00 0.00 57 1012.6
20260507143857 58 199 1.0 2.0 0.00 0.00 0.00 61 1012.3
20260507143355 58 294 1.0 1.0 0.00 0.00 0.00 58 1012.4
20260507142851 58 179 2.0 3.0 0.00 0.00 0.00 57 1012.4
20260507142347 58 309 1.0 2.0 0.00 0.00 0.00 58 1012.8
20260507141844 58 237 1.0 2.0 0.00 0.00 0.00 57 1012.4